User: anonymous   Login
Location: Goheenville
(40.9070°N, 79.3720°W)
Time: 14:29:50
(UTC-04:00)
Language:

NOAA 11 - Orbit

View from above orbital plane
View from above orbital plane
View from above satellite
View from above satellite

Ground track
Ground track

The orbit data is extracted from the following two-line orbital elements,

1 19531U 88089A   15150.45915382  .00000010  00000-0  26929-4 0  9994
2 19531 098.6462 224.4248 0011687 030.1773 330.0072 14.15151718376854
Epoch (UTC): 30 May 2015 11:01:10
Eccentricity: 0.0011687
inclination: 98.6462°
perigee height: 833 km
apogee height: 850 km
right ascension of ascending node: 224.4248°
argument of perigee: 30.1773°
revolutions per day: 14.15151718
mean anomaly at epoch: 330.0072°
orbit number at epoch: 37685

The dashed part of the orbit path shows where the satellite is in the earth's shadow,  

DLR